Sigil TimeFrame

Sigil TimeFrame ⇒ XML

NameTime LeftWindow OpensKilledCrew
Animated Captain3d 04:022018-08-11 09:17:002018-04-17 13:21:00Phoenix Rising
Emperor Neudeus, Controller of the Universe2d 10:522018-08-12 02:27:002018-05-01 06:47:00[Fate] Barricade
Slashbrood, Devourer of the Blackness1d 14:122018-08-12 23:07:002018-04-29 13:05:00[Fate] Ironhide
Crolvak, the Fire Master1d 09:292018-08-13 03:50:002018-05-03 23:19:00The Terrible Ten
Grivvek, Protector of the Brood1d 06:522018-08-13 06:27:002018-05-03 15:58:00Pure and Driven
Nafir, God of Desolation1d 05:162018-08-13 08:03:002018-05-03 03:52:00The Terrible Ten
Balerion, Dragon of Dread0d 23:262018-08-13 13:53:002018-04-29 02:54:00SAVAGES
Crantos, Defender of Ultimation0d 21:122018-08-13 16:07:002018-04-29 16:28:00The Order
Detox0d 18:402018-08-13 18:39:002018-05-02 12:57:00•| Dark Prophecy |•
Keeper of Nature0d 16:452018-08-13 20:34:002018-05-01 02:10:00SAVAGE [ASTRAL3]
Skybrine The Inescapable0d 15:062018-08-13 22:13:002018-04-29 09:46:00~ White Sands Fortress ~
Rancid, Lord of Thugs0d 13:142018-08-14 00:05:002018-05-03 17:43:00Harvester Of Sorrow
Dreg nor, Keeper of the Infernal Essence0d 12:342018-08-14 00:45:002018-05-02 23:15:00Emailcash Crew
Hyrak, Bringer of Nightmares0d 09:552018-08-14 03:24:002018-05-03 08:03:00XXxxHoTMoROxxXX
Lady Ariella0d 07:452018-08-14 05:34:002018-05-02 16:36:00[Fate] Breakaway
Lacuste of the Swarm0d 07:372018-08-14 05:42:002018-05-03 19:15:00SAVAGE
Old World Drake0d 06:372018-08-14 06:42:002018-03-15 01:48:00The Immortal Legion
Akkel the Enflamed Warrior0d 05:162018-08-14 08:03:002018-05-02 21:03:00SAVAGE [ASTRAL2]
Traxodon the Plaguebringer0d 04:062018-08-14 09:13:002018-05-01 12:37:00TeddyPain Production's
Skarthul the Avenged0d 01:212018-08-14 11:58:002018-05-03 07:41:00Fate
Anvilfist0d 00:542018-08-14 12:25:002018-04-30 22:39:00Where's The Loot At ?!
Synge, The Red Dragon0d 00:502018-08-14 12:29:002018-05-03 11:19:00• Rev†vaL •
Wanhiroeaz the Devourer0d 00:432018-08-14 12:36:002018-05-03 17:40:00Harvester Of Sorrow
Sarcrina the Astral Priestess0d 00:182018-08-14 13:01:002018-05-02 13:45:00[Fate] Sqweeks
Nayark the Mummified Sorcerer0d 00:062018-08-14 13:13:002018-05-03 19:41:00SAVAGE [ASTRAL4]
Mistress of the Sword0d 03:212018-08-14 16:41:002018-05-03 13:26:00Not Losters RGA
Sylvanna TorLai0d 03:332018-08-14 16:53:002018-04-30 18:37:00The Fluffy Savages
Terrance, Rebel of Rallis0d 03:362018-08-14 16:56:002018-05-02 09:42:00Not Losters RGA
Crane0d 04:482018-08-14 18:08:002018-05-04 06:05:00Sigil
Lord Varan0d 05:592018-08-14 19:19:002018-05-03 15:02:00[Fate] Breakaway
Ebliss, Fallen Angel of Despair0d 07:072018-08-14 20:27:002018-05-03 21:17:00SAVAGE [POT2]
Windstrike The Vile0d 07:092018-08-14 20:29:002018-04-29 09:26:00Hero Academia
Gorganus of the Wood0d 08:172018-08-14 21:37:002018-05-02 20:36:00Where's The Loot At ?!
Viserion, the Necrodragon0d 09:072018-08-14 22:27:002018-04-29 12:50:00Fate
Garland, The Lord Keeper0d 09:132018-08-14 22:33:002018-05-04 04:19:00Latvija
Freezebreed, The Frozen Manipulator0d 09:482018-08-14 23:08:002018-05-03 14:26:00[Fate] Soundwave
Ganja the Stone Golem0d 10:292018-08-14 23:49:002018-05-03 11:55:00•| Dark Prophecy |•
Q-SEC Commander0d 11:512018-08-15 01:11:002018-05-02 14:40:00Phoenix Rising
Murderface0d 11:562018-08-15 01:16:002018-05-03 03:19:00• Rev†vaL •
Tylos, The Lord Master0d 11:582018-08-15 01:18:002018-05-02 20:53:00Harvester Of Sorrow
Volgan the Living Ironbark0d 12:052018-08-15 01:25:002018-05-02 07:33:00[Fate] Megatron
Threk, King of Lords0d 14:002018-08-15 03:20:002018-05-02 01:27:00TeddyPain Production's
Bolkor, the Holy Master0d 14:582018-08-15 04:18:002018-05-02 15:30:00Transformers
Vitkros, Hydra of the Deep0d 15:052018-08-15 04:25:002018-05-04 04:25:00Latvija
Rotborn, Eater of the Dead0d 15:532018-08-15 05:13:002018-05-03 04:58:00[Fate] Ironhide
Lord Narada0d 16:102018-08-15 05:30:002018-05-04 02:56:00[Fate] Breakaway
Shadow0d 16:362018-08-15 05:56:002018-05-03 02:58:00• Rev†vaL •
Jorun the Blazing Swordsman0d 17:052018-08-15 06:25:002018-05-03 11:15:00[Fate] Optimus
Baron Mu, Dark Rider of the Undead0d 17:392018-08-15 06:59:002018-05-04 05:50:00SAVAGE [BARON]
King Ashnar, Lord of the Unliving0d 18:562018-08-15 08:16:002018-05-01 20:13:00[Fate] Drift
Zertan, The Collector0d 19:502018-08-15 09:10:002018-05-03 02:09:00Not Losters RGA
Melt Bane, The Forbidden Demon Dragon0d 22:312018-08-15 11:51:002018-05-03 18:56:00SAVAGE [COES4]
Ancient Magus Tarkin0d 22:472018-08-15 12:07:002018-05-03 09:11:00[Fate] Sqweeks
Bloodchill the Grizzly0d 23:292018-08-15 12:49:002018-05-03 09:40:00• AfterShock •_1
Ormsul the Putrid1d 01:162018-08-15 14:36:002018-05-02 06:08:00The Fluffy Savages
Amalgamated Apparition1d 02:152018-08-15 15:35:002018-05-03 21:48:00SAVAGE [ASTRAL3]
Kretok, Descendant of Nature1d 02:212018-08-15 15:41:002018-04-28 05:22:00The Truly Terrible Ten
Brutalitar, Lord of the Underworld1d 02:232018-08-15 15:43:002018-05-02 09:08:00[Fate] Hound
Lord Sibannac1d 02:252018-08-15 15:45:002018-05-03 02:57:00.::BRUTE-FORCE::.
Lord Xordam1d 05:532018-08-15 19:13:002018-05-01 09:32:00• Rev†vaL •
Zikkir the Dark Archer1d 05:542018-08-15 19:14:002018-05-03 00:35:00SAVAGE [ASTRAL3]
Pinosis1d 06:062018-08-15 19:26:002018-05-03 21:57:00• Rev†vaL •
Quiver, The Renegade1d 06:472018-08-15 20:07:002018-04-29 03:31:00•Invi†cus Mortem•
Tsort1d 07:012018-08-15 20:21:002018-05-03 07:14:00Sigil
Jazzmin, Maiden of Vitality1d 07:392018-08-15 20:59:002018-05-03 07:04:00Dominating Penguins
Nessam1d 08:262018-08-15 21:46:002018-05-03 17:25:00•| Dark Prophecy |•
Numerocure, The Black Messenger of Evil1d 10:382018-08-15 23:58:002018-05-01 22:14:00SAVAGE [COES4]
Lord Suka1d 10:572018-08-16 00:17:002018-05-01 21:05:00SAVAGE [POT1]
Gnorb1d 11:312018-08-16 00:51:002018-05-02 05:12:00• AfterShock •_1
The Emerald Assassin1d 12:252018-08-16 01:45:002018-05-02 12:21:00Dominating Penguins
Samatha Dark-Soul1d 13:312018-08-16 02:51:002018-05-02 13:27:00• Rev†vaL •
Straya, the Underworld Ruler1d 13:502018-08-16 03:10:002018-05-02 09:50:00SAVAGES
Archdevil Yirkon1d 14:392018-08-16 03:59:002018-05-02 03:42:00SAVAGE [ASTRAL3]
Nar Zhul, Slayer of All1d 16:282018-08-16 05:48:002018-05-03 21:27:00The Order
Howldroid, Tormentor of the Pit1d 16:392018-08-16 05:59:002018-05-04 01:54:00SAVAGE [COES2]
Lady Chaos, Queen of the Abyss1d 17:522018-08-16 07:12:002018-05-02 15:54:00[Fate] Bonecrusher
Hackerphage, Protector of the Gateway1d 18:352018-08-16 07:55:002018-05-03 04:55:00SAVAGE [COES4]
Sigil, Lich of Woe1d 23:202018-08-16 12:40:002018-04-30 21:12:00The Order
Anguish1d 23:332018-08-16 12:53:002018-05-02 01:06:00Sigil
Smoot the Yeti2d 05:092018-08-16 18:29:002018-05-03 21:29:00•| Dark Prophecy |•
Xynak, the Arcane Master2d 06:312018-08-16 19:51:002018-04-29 16:33:00•Ou†war Immor†als•
Dlanod, the Crazed Chancellor2d 10:582018-08-17 00:18:002018-05-03 01:24:00SAVAGES
Karvaz, Lord of Alsayic2d 15:332018-08-17 04:53:002018-05-03 01:51:00SAVAGES
Ag Nabak the Abomination2d 20:052018-08-17 09:25:002018-05-01 01:04:00.::BRUTE-FORCE::.
Raiyar, the Shadow Master3d 05:582018-08-17 19:18:002018-05-03 22:23:00SAVAGES
Great Lord Ganeshan3d 15:372018-08-18 04:57:002018-05-02 07:13:00[Fate] Breakaway
Esquin, the Kinetic Master3d 18:412018-08-18 08:01:002018-04-29 20:47:00The Truly Terrible Ten
Varsanor, Master of Darkness4d 09:142018-08-18 22:34:002018-04-30 23:28:00The Order
Felroc, Overseer of Hellfire4d 13:502018-08-19 03:10:002018-05-03 09:25:00Hero Academia
Kro Shuk, Doomslayer6d 12:522018-08-21 02:12:002018-05-01 08:11:00Emailcash Crew
Shaik, Servant of Arkron38d 08:542018-07-07 04:25:002017-09-28 19:19:00SAVAGE [ASTRAL1]
Rook, Hand of Arkron36d 10:442018-07-09 02:35:002017-09-28 14:41:00Where's The Loot At ?!
Jade Dragonite11d 13:112018-08-03 00:08:002018-03-15 01:54:00The Immortal Legion
93 Gods, Last update: 2018-08-14 13:00:08